Time,TemperatureF,DewpointF,PressureIn,WindDirection,WindDirectionDegrees,WindSpeedMPH,WindSpeedGustMPH,Humidity,HourlyPrecipIn,Conditions,Clouds,dailyrainin,SoftwareType,DateUTC
2013-01-18 08:46:00,-999.0,-99.9,30.30,North,-999,-999.0,-999.0,-999,0.00,,,0.00,weatherlink.com 1.10,2013-01-18 13:46:00,
2013-01-18 08:51:00,-999.0,-99.9,30.30,North,-999,-999.0,-999.0,-999,0.00,,,0.00,weatherlink.com 1.10,2013-01-18 13:51:00,
2013-01-18 09:05:00,-999.0,-99.9,30.31,North,-999,-999.0,-999.0,-999,0.00,,,0.00,weatherlink.com 1.10,2013-01-18 14:05:00,
2013-01-18 09:20:00,-999.0,-99.9,30.32,North,-999,-999.0,-999.0,-999,0.00,,,0.00,weatherlink.com 1.10,2013-01-18 14:20:00,
2013-01-18 09:35:00,-999.0,-99.9,30.32,North,-999,-999.0,-999.0,-999,0.00,,,0.00,weatherlink.com 1.10,2013-01-18 14:35:00,
2013-01-18 09:50:00,14.6,-4.0,30.32,North,9,7.0,15.0,44,0.00,,,0.00,weatherlink.com 1.10,2013-01-18 14:50:00,
2013-01-18 10:05:00,15.1,-3.0,30.33,North,9,11.0,14.0,45,0.00,,,0.00,weatherlink.com 1.10,2013-01-18 15:05:00,
2013-01-18 10:21:00,15.5,-2.0,30.33,North,10,10.0,12.0,45,0.00,,,0.00,weatherlink.com 1.10,2013-01-18 15:21:00,
2013-01-18 10:36:00,15.8,-5.0,30.34,North,9,17.0,30.0,40,0.00,,,0.00,weatherlink.com 1.10,2013-01-18 15:36:00,
2013-01-18 10:52:00,16.2,-4.0,30.34,North,9,7.0,22.0,41,0.00,,,0.00,weatherlink.com 1.10,2013-01-18 15:52:00,
2013-01-18 11:06:00,16.2,-4.0,30.34,North,9,13.0,31.0,41,0.00,,,0.00,weatherlink.com 1.10,2013-01-18 16:06:00,
2013-01-18 11:21:00,16.5,-4.0,30.34,North,9,16.0,23.0,40,0.00,,,0.00,weatherlink.com 1.10,2013-01-18 16:21:00,
2013-01-18 11:36:00,17.0,-3.0,30.35,North,9,12.0,18.0,41,0.00,,,0.00,weatherlink.com 1.10,2013-01-18 16:36:00,
2013-01-18 11:51:00,17.3,-3.0,30.34,North,9,14.0,18.0,41,0.00,,,0.00,weatherlink.com 1.10,2013-01-18 16:51:00,
2013-01-18 12:06:00,-999.0,-99.9,30.34,North,-999,-999.0,-999.0,-999,0.00,,,0.00,weatherlink.com 1.10,2013-01-18 17:06:00,
2013-01-18 12:21:00,18.2,-3.0,30.34,North,9,9.0,21.0,39,0.00,,,0.00,weatherlink.com 1.10,2013-01-18 17:21:00,
2013-01-18 12:38:00,18.1,-4.0,30.34,North,9,15.0,29.0,37,0.00,,,0.00,weatherlink.com 1.10,2013-01-18 17:38:00,
2013-01-18 12:51:00,18.7,-3.0,30.34,North,9,13.0,28.0,38,0.00,,,0.00,weatherlink.com 1.10,2013-01-18 17:51:00,
2013-01-18 13:06:00,18.8,-4.0,30.34,North,9,19.0,25.0,37,0.00,,,0.00,weatherlink.com 1.10,2013-01-18 18:06:00,
2013-01-18 13:21:00,18.8,-4.0,30.34,North,9,10.0,25.0,37,0.00,,,0.00,weatherlink.com 1.10,2013-01-18 18:21:00,
2013-01-18 13:36:00,-999.0,-99.9,30.35,North,-999,-999.0,-999.0,-999,0.00,,,0.00,weatherlink.com 1.10,2013-01-18 18:36:00,
2013-01-18 13:52:00,-999.0,-99.9,30.35,North,-999,-999.0,-999.0,-999,0.00,,,0.00,weatherlink.com 1.10,2013-01-18 18:52:00,
2013-01-18 14:07:00,-999.0,-99.9,30.35,North,-999,-999.0,-999.0,-999,0.00,,,0.00,weatherlink.com 1.10,2013-01-18 19:07:00,
2013-01-18 14:22:00,-999.0,-99.9,30.36,North,-999,-999.0,-999.0,-999,0.00,,,0.00,weatherlink.com 1.10,2013-01-18 19:22:00,
2013-01-18 14:37:00,-999.0,-99.9,30.37,North,-999,-999.0,-999.0,-999,0.00,,,0.00,weatherlink.com 1.10,2013-01-18 19:37:00,
2013-01-18 14:52:00,-999.0,-99.9,30.38,North,-999,-999.0,-999.0,-999,0.00,,,0.00,weatherlink.com 1.10,2013-01-18 19:52:00,
2013-01-18 15:07:00,-999.0,-99.9,30.38,North,-999,-999.0,-999.0,-999,0.00,,,0.00,weatherlink.com 1.10,2013-01-18 20:07:00,
2013-01-18 15:22:00,-999.0,-99.9,30.38,North,-999,-999.0,-999.0,-999,0.00,,,0.00,weatherlink.com 1.10,2013-01-18 20:22:00,
2013-01-18 15:40:00,-999.0,-99.9,30.38,North,-999,-999.0,-999.0,-999,0.00,,,0.00,weatherlink.com 1.10,2013-01-18 20:40:00,
2013-01-18 16:07:00,-999.0,-99.9,30.39,North,-999,-999.0,-999.0,-999,0.00,,,0.00,weatherlink.com 1.10,2013-01-18 21:07:00,
2013-01-18 16:22:00,-999.0,-99.9,30.39,North,-999,-999.0,-999.0,-999,0.00,,,0.00,weatherlink.com 1.10,2013-01-18 21:22:00,
2013-01-18 16:37:00,19.2,0.0,30.40,North,9,13.0,17.0,43,0.00,,,0.00,weatherlink.com 1.10,2013-01-18 21:37:00,
2013-01-18 16:52:00,-999.0,-99.9,30.39,North,-999,-999.0,-999.0,-999,0.00,,,0.00,weatherlink.com 1.10,2013-01-18 21:52:00,
2013-01-18 17:08:00,-999.0,-99.9,30.41,North,-999,-999.0,-999.0,-999,0.00,,,0.00,weatherlink.com 1.10,2013-01-18 22:08:00,
2013-01-18 17:23:00,-999.0,-99.9,30.41,North,-999,-999.0,-999.0,-999,0.00,,,0.00,weatherlink.com 1.10,2013-01-18 22:23:00,
2013-01-18 17:38:00,-999.0,-99.9,30.42,North,-999,-999.0,-999.0,-999,0.00,,,0.00,weatherlink.com 1.10,2013-01-18 22:38:00,
2013-01-18 17:53:00,-999.0,-99.9,30.42,North,-999,-999.0,-999.0,-999,0.00,,,0.00,weatherlink.com 1.10,2013-01-18 22:53:00,
2013-01-18 18:08:00,-999.0,-99.9,30.43,North,-999,-999.0,-999.0,-999,0.00,,,0.00,weatherlink.com 1.10,2013-01-18 23:08:00,
2013-01-18 18:23:00,-999.0,-99.9,30.43,North,-999,-999.0,-999.0,-999,0.00,,,0.00,weatherlink.com 1.10,2013-01-18 23:23:00,
2013-01-18 18:38:00,-999.0,-99.9,30.44,North,-999,-999.0,-999.0,-999,0.00,,,0.00,weatherlink.com 1.10,2013-01-18 23:38:00,
2013-01-18 18:53:00,-999.0,-99.9,30.44,North,-999,-999.0,-999.0,-999,0.00,,,0.00,weatherlink.com 1.10,2013-01-18 23:53:00,
2013-01-18 19:08:00,-999.0,-99.9,30.44,North,-999,-999.0,-999.0,-999,0.00,,,0.00,weatherlink.com 1.10,2013-01-19 00:08:00,
2013-01-18 19:23:00,-999.0,-99.9,30.44,North,-999,-999.0,-999.0,-999,0.00,,,0.00,weatherlink.com 1.10,2013-01-19 00:23:00,
2013-01-18 19:38:00,-999.0,-99.9,30.44,North,-999,-999.0,-999.0,-999,0.00,,,0.00,weatherlink.com 1.10,2013-01-19 00:38:00,
2013-01-18 19:53:00,-999.0,-99.9,30.44,North,-999,-999.0,-999.0,-999,0.00,,,0.00,weatherlink.com 1.10,2013-01-19 00:53:00,
2013-01-18 20:08:00,-999.0,-99.9,30.44,North,-999,-999.0,-999.0,-999,0.00,,,0.00,weatherlink.com 1.10,2013-01-19 01:08:00,
2013-01-18 20:23:00,-999.0,-99.9,30.45,North,-999,-999.0,-999.0,-999,0.00,,,0.00,weatherlink.com 1.10,2013-01-19 01:23:00,
2013-01-18 20:39:00,-999.0,-99.9,30.44,North,-999,-999.0,-999.0,-999,0.00,,,0.00,weatherlink.com 1.10,2013-01-19 01:39:00,
2013-01-18 20:54:00,-999.0,-99.9,30.43,North,-999,-999.0,-999.0,-999,0.00,,,0.00,weatherlink.com 1.10,2013-01-19 01:54:00,
2013-01-18 21:09:00,-999.0,-99.9,30.44,North,-999,-999.0,-999.0,-999,0.00,,,0.00,weatherlink.com 1.10,2013-01-19 02:09:00,
2013-01-18 21:24:00,-999.0,-99.9,30.44,North,-999,-999.0,-999.0,-999,0.00,,,0.00,weatherlink.com 1.10,2013-01-19 02:24:00,
2013-01-18 21:39:00,-999.0,-99.9,30.43,North,-999,-999.0,-999.0,-999,0.00,,,0.00,weatherlink.com 1.10,2013-01-19 02:39:00,
2013-01-18 21:54:00,-999.0,-99.9,30.42,North,-999,-999.0,-999.0,-999,0.00,,,0.00,weatherlink.com 1.10,2013-01-19 02:54:00,
2013-01-18 22:09:00,-999.0,-99.9,30.43,North,-999,-999.0,-999.0,-999,0.00,,,0.00,weatherlink.com 1.10,2013-01-19 03:09:00,
2013-01-18 22:24:00,-999.0,-99.9,30.42,North,-999,-999.0,-999.0,-999,0.00,,,0.00,weatherlink.com 1.10,2013-01-19 03:24:00,
2013-01-18 22:39:00,-999.0,-99.9,30.41,North,-999,-999.0,-999.0,-999,0.00,,,0.00,weatherlink.com 1.10,2013-01-19 03:39:00,
2013-01-18 22:54:00,-999.0,-99.9,30.40,North,-999,-999.0,-999.0,-999,0.00,,,0.00,weatherlink.com 1.10,2013-01-19 03:54:00,
2013-01-18 23:09:00,-999.0,-99.9,30.39,North,-999,-999.0,-999.0,-999,0.00,,,0.00,weatherlink.com 1.10,2013-01-19 04:09:00,
2013-01-18 23:24:00,-999.0,-99.9,30.39,North,-999,-999.0,-999.0,-999,0.00,,,0.00,weatherlink.com 1.10,2013-01-19 04:24:00,
2013-01-18 23:39:00,-999.0,-99.9,30.39,North,-999,-999.0,-999.0,-999,0.00,,,0.00,weatherlink.com 1.10,2013-01-19 04:39:00,
2013-01-18 23:54:00,-999.0,-99.9,30.37,North,-999,-999.0,-999.0,-999,0.00,,,0.00,weatherlink.com 1.10,2013-01-19 04:54:00,